Home > Weather > Yaoundé > Past weeks

Flag for Cameroon Past Weather in Yaoundé, Cameroon — Yesterday and Last 2 Weeks

Now
73 °F

Partly sunny.


Feels Like: 73 °F
Forecast: 68 / 78 °F
Wind: 8 mph from Southwest

Location: Yaounde Airport

Current Time: Aug 25, 2016 at 11:04:41 AM

Latest Report: Aug 25, 2016 at 10:00 AM


Visibility: N/A

Pressure: 30.09 "Hg (27.70 "Hg at 717m altitude)

Humidity: 83%

Dew Point: 68 °F

Location of YaoundéLocation

Past Weather in Yaoundé — Graph

°F

Yaoundé Temperature Yesterday

Maximum temperature yesterday: 77 °F (at 11:00 AM)
Minimum temperature yesterday: 70 °F (at 4:00 AM)
Average temperature yesterday: 73 °F

High & Low Weather Summary for the Past Weeks

 TemperatureHumidityPressure
High86 °F (Aug 22, 3:00 PM)100% (Aug 17, 2:00 AM)30.12 "Hg (Aug 17, 2:00 AM)
Low68 °F (Aug 11, 6:00 AM)62% (Aug 16, 1:00 PM)29.95 "Hg (Aug 14, 4:00 PM)
Average73 °F86%30.05 "Hg
* Reported Aug 10 8:00 AM — Aug 25 8:00 AM, Yaoundé, Weather by CustomWeather, © 2016

Note: Actual official high and low records may vary slightly from our data, if they occured in-between our weather recording intervals... More about our weather records

Advertising

Yaoundé Weather History for the Previous 24 Hours

Scroll right to see more
 ConditionsComfort  
Time TempWeatherWind HumidityBarometerVisibility
8:00 AM
Thu, Aug 25
72 °FPartly sunny.7 mph88%30.07 "Hg4 mi
7:00 AM68 °FPartly sunny.5 mph100%30.04 "Hg4 mi
6:00 AM68 °FPartly cloudy.6 mph100%30.04 "Hg5 mi
5:00 AM68 °FPassing clouds.No wind94%30.04 "Hg5 mi
4:00 AM68 °FPartly cloudy.6 mph100%30.04 "Hg5 mi
3:00 AM68 °FPartly cloudy.3 mph94%30.04 "Hg5 mi
2:00 AM68 °FPassing clouds.2 mph100%30.04 "Hg5 mi
1:00 AM68 °FPassing clouds.5 mph94%30.07 "Hg5 mi
12:00 AM70 °FPassing clouds.7 mph94%30.07 "Hg5 mi
11:00 PM
Wed, Aug 24
70 °FPassing clouds.6 mph94%30.09 "Hg5 mi
10:00 PM70 °FPassing clouds.3 mph94%30.09 "Hg5 mi
9:00 PM72 °FPassing clouds.5 mph88%30.07 "HgN/A
8:00 PM72 °FPassing clouds.5 mph88%30.04 "HgN/A
7:00 PM72 °FPassing clouds.2 mph88%30.01 "HgN/A
6:00 PM73 °FPartly sunny.3 mph89%30.01 "HgN/A
5:00 PM73 °FPartly sunny.8 mph89%29.98 "HgN/A
4:00 PM75 °FPartly sunny.10 mph83%29.98 "HgN/A
3:00 PM77 °FBroken clouds.10 mph79%29.98 "HgN/A
2:00 PM77 °FBroken clouds.15 mph79%29.98 "HgN/A
1:00 PM77 °FPartly sunny.7 mph83%30.04 "HgN/A
12:00 PM75 °FPartly sunny.8 mph89%30.07 "HgN/A
11:00 AM77 °FPartly sunny.7 mph83%30.07 "HgN/A
Weather by CustomWeather, © 2016

See weather overviewHow to use our weather pages